Orbital Elements at Epoch 2459000.5 (2020-May-31.0) TDB
Reference: JPL 22 (heliocentric ecliptic J2000)
Element | Value | Uncertainty (1-sigma) | Units |
e | .1433337351457844 | 4.6896e-08 | |
a | 3.132327772251914 | 2.6507e-08 | au |
q | 2.683359532954174 | 1.536e-07 | au |
i | 19.68195860405432 | 6.2107e-06 | deg |
node | 186.2763247778686 | 1.3856e-05 | deg |
peri | 71.94429939869264 | 2.4345e-05 | deg |
M | 309.982434426904 | 2.0439e-05 | deg |
tp | 2459281.832093467540 (2021-Mar-08.33209347) | 0.0001162 | TDB |
period | 2024.879709515322 5.54 | 2.5703e-05 7.037e-08 | d yr |
n | .1777883388866443 | 2.2567e-09 | deg/d |
Q | 3.581296011549655 | 3.0306e-08 | au |
|
| | Orbit Determination Parameters
Additional Information
|